[[{"header":{"parameterUnit":"m.s-1","parameterCategory":1,"la1":30.2991,"la2":30.254,"lo1":-89.0895,"lo2":-89.0444,"dy":0.0017,"dx":0.0017,"nx":28,"ny":28,"refTime":"2025-09-05T09:00:00:Z","depth":0,"parameterNumber":2,"parameterNumberName":"U-component_of_WINDS"},"data":[0,0,0,0,0,0,0,0,0,0,0,0,0,0,0,0,0,0,0,0,0,0,0,0,0,0,0,0,0,0,0,0,0,0,0,0,0,0,0,0,0,0,0,0,0,0,0,0,0,0,0,0,0,0,0,0,0,0,0.1184,0.1184,0,0.1185,0.1185,0.1185,0.1212,0.1212,0.1213,0.1214,0.1213,0.1212,0.1212,0,0,0,0,0,0,0,0,0,0,0,0,0,0.1203,0.1203,0.1184,0.1184,0.1184,0.1185,0.1185,0.1185,0.1211,0.1212,0.1213,0.1214,0.1213,0.1212,0.1212,0,0,0,0,0,0,0,0,0,0,0,0,0,0.1199,0.1203,0.1184,0.1198,0.1199,0.1185,0.1185,0.1185,0.1211,0.1212,0.1213,0.1214,0.1213,0.1212,0.1211,0.1185,0,0,0.1208,0.1208,0,0,0,0,0,0,0,0,0.1199,0.1198,0.1196,0.1197,0.1198,0.1199,0.1192,0.1185,0.1211,0.1206,0.1214,0.1215,0.1207,0.1207,0.1205,0.1185,0.1185,0.1208,0.1208,0.1207,0.1207,0,0,0,0,0,0,0,0.1199,0.1198,0.1185,0.1196,0.1197,0.1203,0.1203,0.1191,0.1201,0.1207,0.1209,0.1209,0.1208,0.1206,0.1205,0.1185,0.1208,0.1208,0.1207,0.1207,0.1142,0.114,0,0,0,0,0,0,0.1198,0.1198,0.1185,0.1185,0.1201,0.1202,0.1202,0.1198,0.1201,0.1203,0.1208,0.121,0.1207,0.1206,0.1205,0.1173,0.1207,0.1206,0.1206,0.1143,0.1141,0.114,0,0,0,0,0,0,0.1198,0.1196,0.1185,0.1192,0.1191,0.12,0.1195,0.1197,0.1195,0.1202,0.1204,0.1203,0.1208,0.1207,0.119,0.1173,0.1206,0.1205,0.1144,0.1142,0.1141,0.1109,0,0,0,0,0,0,0.1199,0.1196,0.1187,0.1192,0.119,0.1169,0.1194,0.1197,0.1193,0.1196,0.1198,0.12,0.1208,0.1191,0.1189,0.1173,0.1204,0.1145,0.1143,0.1141,0.1112,0.1107,0.1102,0,0,0,0,0,0.1199,0.1178,0.1186,0.1184,0.1179,0.1168,0.1168,0.1179,0.1192,0.1182,0.1186,0.12,0.1176,0.1189,0.1187,0.117,0.1146,0.1144,0.1141,0.1114,0.1108,0.1103,0,0,0,0,0,0,0.1171,0.1179,0.1188,0.1168,0.1167,0.1173,0.1161,0.1172,0.1167,0.117,0.1183,0.1183,0.1164,0.1166,0.118,0.1144,0.1163,0.116,0.1143,0.1138,0.1133,0.1132,0.1204,0,0,0,0,0,0.1162,0.1154,0.1161,0.1142,0.1142,0.1151,0.1147,0.1156,0.1155,0.1155,0.1158,0.1157,0.1149,0.1144,0.1137,0.1113,0.1113,0.11,0.1095,0.1092,0.1088,0.1074,0.1068,0.1132,0.1132,0.1132,0,0,0.1144,0.1147,0.1141,0.1137,0.1137,0.1127,0.1151,0.114,0.1132,0.1153,0.1137,0.1139,0.1139,0.1118,0.1108,0.1118,0.1071,0.1088,0.1085,0.1084,0.1071,0.1065,0.1059,0.113,0.113,0.1131,0,0,0.1106,0.1108,0.1092,0.1092,0.1093,0.11,0.1096,0.11,0.1102,0.1086,0.1102,0.1093,0.1079,0.1078,0.1075,0.1036,0.1048,0.1034,0.1009,0.0995,0.099,0.0985,0.097,0.0964,0.1031,0.1031,0.103,0,0.1083,0.1069,0.1082,0.107,0.1067,0.1086,0.107,0.1069,0.1067,0.1064,0.1076,0.1059,0.106,0.1038,0.1028,0.1026,0.1021,0.1033,0.0989,0.0985,0.0981,0.0966,0.0961,0.1029,0.1029,0.1029,0.1029,0,0.104,0.1031,0.1018,0.1016,0.1011,0.0997,0.1007,0.1001,0.101,0.1015,0.0998,0.1,0.0993,0.0989,0.0998,0.0968,0.0974,0.0987,0.1007,0.0973,0.0959,0.0954,0.1026,0.1027,0.1027,0.1028,0,0,0.0983,0.0989,0.0984,0.0983,0.0985,0.0977,0.0963,0.0957,0.0951,0.0949,0.0937,0.0925,0.0937,0.0934,0.0943,0.0931,0.0898,0.0945,0.0946,0.0935,0.0863,0.0852,0.0846,0.0906,0.0905,0.0904,0.0863,0,0.0945,0.0922,0.0933,0.0908,0.0899,0.0917,0.0905,0.0904,0.0908,0.09,0.0905,0.0896,0.0913,0.0911,0.09,0.0904,0.0883,0.0908,0.0893,0.0893,0.0891,0.0839,0.0827,0.0788,0.0858,0.0857,0.0856,0,0.0897,0.0894,0.0868,0.0871,0.0867,0.0856,0.0851,0.0844,0.0843,0.0847,0.0844,0.0855,0.084,0.0861,0.084,0.0856,0.0851,0.0852,0.0851,0.0849,0.0871,0.0834,0.0776,0.077,0.0849,0.0849,0.085,0,0.0856,0.0845,0.0828,0.0827,0.083,0.0822,0.0823,0.0823,0.0819,0.0814,0.0811,0.0805,0.0801,0.0796,0.0804,0.0819,0.0782,0.0804,0.0784,0.0783,0.0774,0.0774,0.0713,0.0773,0.0773,0.0773,0.0774,0,0.0811,0.0794,0.0809,0.0798,0.078,0.0793,0.0774,0.0777,0.0777,0.0766,0.0782,0.0772,0.0785,0.0775,0.0782,0.0763,0.0762,0.0764,0.0765,0.0761,0.0761,0.0757,0.0759,0.0772,0.0772,0.0773,0.0773,0,0.0762,0.0771,0.0753,0.0759,0.0759,0.0745,0.0749,0.0739,0.0745,0.0731,0.0728,0.0737,0.0726,0.0735,0.0725,0.0729,0.0704,0.071,0.0704,0.0705,0.0684,0.0685,0.0617,0.0608,0.0675,0.0675,0.0674,0,0.0732,0.0719,0.0723,0.0717,0.0718,0.0708,0.0704,0.0716,0.0711,0.0709,0.0698,0.0689,0.0683,0.0665,0.067,0.0662,0.0667,0.0644,0.0666,0.0662,0.0665,0.0665,0.0663,0.0639,0.0638,0.0637,0.0637,0,0.0677,0.0682,0.0676,0.067,0.0664,0.066,0.0658,0.0652,0.0665,0.0657,0.0647,0.0642,0.0632,0.0622,0.0616,0.0616,0.0628,0.063,0.0625,0.062,0.0616,0.0616,0.069,0.0631,0.0632,0.0632,0.0632,0.0633,0.0635,0.0624,0.0625,0.0617,0.0616,0.0613,0.0604,0.0608,0.06,0.0593,0.0601,0.0588,0.0587,0.058,0.0578,0.0568,0.0577,0.057,0.0568,0.0565,0.0562,0.0619,0.0567,0.0567,0.0567,0.0567,0.0568,0,0.058,0.0581,0.0574,0.0569,0.0562,0.0576,0.0573,0.0566,0.0555,0.0554,0.0547,0.0534,0.0525,0.0529,0.0521,0.0511,0.0516,0.0508,0.0508,0.0508,0.0554,0.0559,0.0504,0.0504,0.0504,0.0504,0.0504,0.0504,0.055,0.0532,0.0537,0.0519,0.0521,0.0508,0.0506,0.0503,0.0502,0.0487,0.048,0.0483,0.0483,0.0475,0.0466,0.0468,0.0463,0.0453,0.0456,0.0499,0.0505,0.0511,0.0515,0.0452,0.0452,0.041,0.041,0.0409]},{"header":{"parameterUnit":"m.s-1","parameterCategory":1,"la1":30.2991,"la2":30.254,"lo1":-89.0895,"lo2":-89.0444,"dy":0.0017,"dx":0.0017,"nx":28,"ny":28,"refTime":"2025-09-05T09:00:00:Z","depth":0,"parameterNumber":3,"parameterNumberName":"V-component_of_WINDS"},"data":[0,0,0,0,0,0,0,0,0,0,0,0,0,0,0,0,0,0,0,0,0,0,0,0,0,0,0,0,0,0,0,0,0,0,0,0,0,0,0,0,0,0,0,0,0,0,0,0,0,0,0,0,0,0,0,0,0,0,1.78,1.7799,0,1.7768,1.7768,1.7767,1.7742,1.7741,1.7741,1.7741,1.7707,1.7706,1.7706,0,0,0,0,0,0,0,0,0,0,0,0,0,1.7836,1.7835,1.78,1.7799,1.7799,1.7768,1.7768,1.7767,1.7742,1.7741,1.7741,1.7741,1.7707,1.7706,1.7706,0,0,0,0,0,0,0,0,0,0,0,0,0,1.7814,1.7835,1.78,1.7782,1.7781,1.7768,1.7768,1.7767,1.7742,1.7741,1.7741,1.7741,1.7707,1.7707,1.7706,1.7707,0,0,1.7703,1.7702,0,0,0,0,0,0,0,0,1.7815,1.7813,1.7785,1.7784,1.7782,1.7758,1.7768,1.7747,1.7742,1.7757,1.7741,1.7741,1.7724,1.7722,1.7717,1.7706,1.7704,1.7702,1.7702,1.7701,1.7701,0,0,0,0,0,0,0,1.7817,1.7814,1.7787,1.7785,1.7783,1.7776,1.7772,1.7764,1.7743,1.7755,1.7753,1.775,1.7723,1.7718,1.7716,1.7704,1.7702,1.7702,1.7701,1.7701,1.7691,1.7691,0,0,0,0,0,0,1.7821,1.7815,1.7788,1.7786,1.7798,1.7775,1.7771,1.7766,1.7743,1.7739,1.775,1.7749,1.772,1.7717,1.7715,1.7714,1.7701,1.77,1.77,1.769,1.7691,1.7691,0,0,0,0,0,0,1.7822,1.7819,1.7789,1.78,1.7796,1.7775,1.777,1.7766,1.776,1.7739,1.7735,1.7749,1.7719,1.7716,1.7709,1.7712,1.77,1.7699,1.769,1.7691,1.7691,1.7713,0,0,0,0,0,0,1.7823,1.7819,1.782,1.78,1.7795,1.7785,1.777,1.7766,1.7759,1.7757,1.7737,1.7733,1.7719,1.7711,1.7708,1.7711,1.7698,1.769,1.769,1.7691,1.7712,1.7715,1.7717,0,0,0,0,0,1.7825,1.7828,1.7821,1.7817,1.7796,1.7785,1.7782,1.7766,1.7759,1.776,1.7746,1.7734,1.7713,1.771,1.7707,1.771,1.7689,1.769,1.7691,1.7711,1.7714,1.7717,0,0,0,0,0,0,1.7848,1.7825,1.7817,1.7814,1.7802,1.7781,1.7781,1.777,1.7759,1.7758,1.7738,1.7733,1.7728,1.7718,1.7716,1.7709,1.7699,1.7699,1.7716,1.7718,1.7721,1.7723,1.7697,0,0,0,0,0,1.7853,1.7847,1.7827,1.7826,1.782,1.7802,1.7797,1.7785,1.7772,1.7766,1.7752,1.7739,1.773,1.7724,1.7714,1.7711,1.7705,1.7711,1.7713,1.7715,1.7715,1.7712,1.7714,1.7694,1.7694,1.7694,0,0,1.7863,1.785,1.7847,1.783,1.782,1.7813,1.7798,1.7791,1.7786,1.7765,1.7758,1.7747,1.7731,1.7726,1.7723,1.7717,1.772,1.7716,1.7718,1.7717,1.7713,1.7715,1.7716,1.7694,1.7694,1.7694,0,0,1.7877,1.7867,1.7865,1.7855,1.7839,1.7827,1.7826,1.7807,1.7799,1.7792,1.7776,1.7769,1.7753,1.7742,1.7734,1.7744,1.7732,1.7741,1.7752,1.7749,1.7751,1.7752,1.7755,1.7756,1.7742,1.7742,1.7742,0,1.7891,1.7881,1.7865,1.7859,1.7852,1.7834,1.7831,1.7822,1.7803,1.7798,1.7793,1.7772,1.776,1.7751,1.7754,1.7749,1.7746,1.7743,1.7752,1.7753,1.7754,1.7756,1.7757,1.7743,1.7743,1.7743,1.7743,0,1.7899,1.7892,1.7892,1.7875,1.7868,1.7864,1.7846,1.7841,1.783,1.7818,1.781,1.7795,1.7781,1.7778,1.7768,1.7768,1.7765,1.7756,1.7745,1.7757,1.7759,1.776,1.7745,1.7744,1.7744,1.7743,0,0,1.7926,1.7901,1.7901,1.7893,1.7874,1.7868,1.7863,1.785,1.7845,1.7833,1.7827,1.7814,1.7806,1.7797,1.7785,1.7782,1.779,1.7773,1.7773,1.7776,1.7788,1.7794,1.7795,1.7782,1.7782,1.7782,1.7789,0,1.7937,1.7927,1.7912,1.7906,1.7899,1.7882,1.7877,1.7864,1.7853,1.7845,1.7832,1.7822,1.7812,1.7807,1.7804,1.779,1.7792,1.7789,1.7775,1.7775,1.7779,1.7796,1.7803,1.781,1.7789,1.7789,1.779,0,1.7948,1.7937,1.7931,1.7912,1.7909,1.7905,1.7891,1.7884,1.7869,1.7861,1.7851,1.7838,1.7831,1.7822,1.7811,1.7809,1.7803,1.7795,1.7795,1.7792,1.7782,1.7793,1.7812,1.7812,1.7791,1.779,1.779,0,1.7967,1.7951,1.7945,1.7939,1.7918,1.7915,1.7906,1.7891,1.7884,1.7872,1.7867,1.7854,1.7847,1.7837,1.782,1.7816,1.781,1.78,1.7802,1.7802,1.7801,1.7801,1.7818,1.7799,1.7799,1.7799,1.7799,0,1.798,1.7976,1.7954,1.795,1.7945,1.7928,1.7924,1.7913,1.79,1.7893,1.7877,1.7871,1.785,1.7841,1.7828,1.782,1.7817,1.7809,1.7806,1.781,1.7811,1.7805,1.7803,1.7799,1.7799,1.7799,1.7799,0,1.8,1.7985,1.7977,1.7958,1.7953,1.795,1.7933,1.7928,1.7916,1.7907,1.7904,1.7885,1.7873,1.7856,1.784,1.7831,1.7824,1.7819,1.7829,1.7827,1.783,1.7829,1.7842,1.7843,1.7824,1.7824,1.7825,0,1.8009,1.8006,1.7986,1.7981,1.7972,1.7964,1.7956,1.7939,1.7932,1.7915,1.7912,1.79,1.7888,1.7871,1.7855,1.7841,1.7835,1.7841,1.7833,1.7837,1.7834,1.7834,1.7833,1.7842,1.7842,1.7843,1.7843,0,1.8025,1.8018,1.8008,1.7996,1.7988,1.7978,1.7966,1.7962,1.7943,1.7935,1.7924,1.7915,1.7898,1.7886,1.787,1.786,1.7848,1.7846,1.7845,1.7849,1.7855,1.7851,1.7833,1.7845,1.7845,1.7845,1.7845,1.7844,1.8039,1.8035,1.8021,1.801,1.8,1.799,1.7984,1.7972,1.7962,1.7947,1.7938,1.7926,1.7911,1.7889,1.7879,1.7869,1.7864,1.7864,1.7864,1.7863,1.7865,1.7857,1.7867,1.7867,1.7866,1.7866,1.7866,0,1.8053,1.8043,1.8034,1.8019,1.8011,1.8001,1.7988,1.7982,1.7972,1.7959,1.7949,1.7935,1.7923,1.7906,1.7892,1.7887,1.7881,1.7884,1.7883,1.7881,1.7871,1.7872,1.7889,1.7889,1.7889,1.7889,1.7889,1.7889,1.806,1.8053,1.8044,1.8031,1.8021,1.801,1.8003,1.7993,1.7983,1.7969,1.7959,1.7948,1.7933,1.7918,1.7905,1.7901,1.7896,1.79,1.7894,1.7884,1.7882,1.788,1.7881,1.7899,1.79,1.7905,1.7905,1.7905]}]]